Theta_e
295 298 297 295 295 296 297 299 302 304 309 306 308 310 310 308 310 311 313 312 314 315 315 315 315 319 318 316 316 317 320 324 325 324 323 323 323 322 318 320 324 319 320 321
297 298 297 296 295 297 298 299 301 304 306 304 305 306 308 309 311 312 313 314 314 311 313 316 315 318 317 314 315 317 321 325 324 326 324 322 323 322 319 317 318 323 324 325
297 296 296 295 296 298 298 301 302 304 303 302 305 306 308 309 309 312 313 314 312 312 312 313 316 316 318 315 315 316 316 325 321 324 324 322 323 319 321 320 320 323 323 327
296 296 296 296 297 298 299 301 301 301 301 302 303 305 306 309 310 311 311 314 313 313 314 314 316 316 319 319 318 317 320 326 324 325 323 323 326 326 324 321 321 323 326 325
296 295 296 297 297 298 299 301 299 300 301 302 303 304 308 306 306 309 313 314 313 311 313 314 315 315 317 318 320 319 319 326 325 327 324 324 327 325 325 325 326 326 325 324
296 295 296 297 297 298 299 298 299 300 301 302 303 305 306 307 307 311 311 311 312 311 312 311 311 311 314 317 320 318 318 324 323 327 326 325 325 325 326 325 326 326 326 324
295 295 296 297 297 298 298 299 299 300 301 302 303 304 306 306 307 310 311 310 311 311 310 310 313 314 316 317 318 317 319 322 322 325 324 326 325 324 325 325 324 325 324 324
296 297 297 297 297 298 298 298 299 300 301 301 302 303 305 305 306 309 311 309 309 310 310 316 316 317 316 318 319 319 318 320 322 321 324 325 324 323 324 324 324 323 322 316
295 296 298 298 297 297 298 298 299 300 300 302 301 303 304 306 308 309 310 309 309 309 311 316 319 320 317 318 320 320 320 322 321 318 323 328 325 323 321 321 324 320 316 314
296 295 297 299 299 298 298 299 300 300 300 301 302 302 304 305 305 307 310 309 310 309 311 318 321 322 319 322 321 319 322 321 321 318 324 323 322 322 321 321 321 319 316 316
297 297 297 299 299 299 300 300 300 301 301 301 302 304 303 303 304 308 309 309 308 308 311 317 318 319 321 320 319 320 322 321 319 318 322 323 319 321 320 317 316 316 313 312
299 298 298 299 300 301 301 301 299 301 301 302 302 305 308 307 308 305 309 310 310 308 310 310 309 318 319 318 320 319 321 319 322 320 323 317 317 317 315 314 313 312 312 311
299 300 299 299 300 300 300 300 300 301 303 302 304 306 305 307 309 310 310 310 310 311 311 314 314 317 316 318 320 320 321 320 321 319 317 315 314 314 314 314 312 311 311 311
299 300 300 299 299 300 300 300 301 301 302 302 304 305 308 308 310 310 311 312 312 312 313 313 313 315 313 316 317 318 318 318 317 317 314 313 312 312 312 311 311 311 310 310
300 300 299 299 299 300 300 302 303 303 304 304 304 305 307 308 309 310 311 311 312 312 311 309 311 310 310 310 313 315 315 317 317 317 314 312 310 310 311 310 309 309 308 305
300 300 300 300 300 300 301 302 303 302 303 304 305 306 308 307 309 310 311 311 311 312 311 307 310 311 309 312 314 315 317 317 316 314 311 310 308 310 310 308 306 306 305 304
300 300 300 300 300 300 300 303 302 302 303 304 306 305 307 307 309 310 310 311 311 311 310 308 308 309 311 312 317 316 317 315 314 311 310 307 308 305 307 306 304 304 303 302
301 301 301 301 301 302 303 303 303 303 303 304 306 306 306 307 307 308 310 310 310 309 310 309 306 308 309 313 312 317 315 314 312 311 310 307 305 305 305 304 304 303 302 301
302 302 302 302 302 302 302 303 303 303 303 304 306 308 306 308 308 309 310 310 307 308 305 306 308 306 311 313 314 316 316 315 310 308 306 305 305 304 304 303 303 302 301 301
301 302 302 302 302 302 303 304 304 304 304 304 306 308 306 308 308 308 308 308 305 308 306 308 305 308 311 314 315 316 315 312 309 308 307 305 305 304 304 303 303 302 301 300
301 301 302 301 302 303 303 305 304 306 307 307 307 308 306 309 307 305 309 303 305 309 307 307 306 308 309 314 315 315 314 312 311 310 309 309 306 304 304 303 303 302 301 299
301 301 302 302 303 305 306 307 307 307 307 308 307 308 309 309 310 308 308 308 308 312 308 308 309 312 313 314 315 315 314 312 312 312 309 308 306 305 304 303 303 302 301 299
301 302 303 305 305 307 308 309 308 308 308 307 308 306 309 310 310 307 307 308 308 309 306 311 314 312 313 313 313 314 313 312 312 311 309 308 306 305 305 303 302 301 300 299
301 302 302 305 308 304 305 306 308 308 307 307 308 309 308 307 306 304 307 307 307 310 314 313 310 309 313 313 314 313 313 312 310 306 307 306 305 304 303 303 301 301 300 298
302 302 304 306 305 305 305 306 308 308 307 308 309 307 306 304 305 304 305 308 312 312 309 304 306 311 312 313 313 313 311 307 304 305 304 303 302 302 301 301 301 300 299 298
303 302 303 304 305 305 306 307 309 308 308 308 309 307 307 308 306 306 307 309 311 309 308 308 311 313 312 311 311 311 308 303 303 303 302 301 301 301 301 300 300 299 298 296
304 304 304 304 304 304 304 307 309 308 309 309 308 309 310 307 308 309 309 310 308 309 309 308 310 310 310 309 308 304 303 302 302 301 301 300 300 300 300 299 298 297 297 296
Wind_Speed
30 32 34 33 34 38 40 17 6 22 21 7 5 3 11 7 17 21 11 5 11 11 11 5 6 11 5 7 5 2 2 2 4 9 1 0 6 3 8 7 3 3 5 3
31 32 33 31 29 30 33 19 10 15 15 5 5 8 10 17 14 14 4 4 8 3 5 3 8 8 8 15 7 7 4 6 5 9 2 4 3 13 7 7 4 5 6 4
31 32 29 27 27 28 27 8 5 8 7 21 8 12 10 13 21 10 7 11 2 4 4 5 4 6 6 18 8 9 6 3 4 9 5 6 6 10 10 8 5 6 4 7
29 29 26 25 26 25 20 4 4 8 7 12 15 15 11 15 14 8 10 4 2 5 4 6 5 7 6 10 11 5 4 7 6 6 11 12 1 3 3 5 8 7 9 10
28 28 22 23 23 24 15 7 7 8 22 16 13 13 8 17 13 6 4 7 10 6 6 7 5 7 2 2 7 3 3 3 5 6 12 20 4 6 9 8 10 11 10 3
26 24 20 22 21 22 10 16 18 12 10 9 11 6 14 18 24 10 12 13 11 8 8 7 16 14 16 4 2 4 3 2 4 3 6 10 1 3 9 11 8 12 6 4
24 23 20 21 18 18 18 20 19 7 7 7 11 19 19 20 23 14 10 18 9 5 23 24 11 15 9 6 7 4 1 3 3 4 6 5 3 7 13 16 10 5 6 10
26 25 24 22 19 18 20 22 18 6 5 15 18 21 18 26 26 15 8 15 24 25 15 3 3 1 1 3 4 10 2 4 4 4 5 4 4 7 9 7 5 6 6 16
28 24 25 25 21 18 21 21 15 17 7 4 23 20 23 10 9 9 11 23 25 8 2 2 3 2 3 2 2 5 7 2 4 3 5 4 3 5 18 9 2 3 23 19
30 25 24 23 21 18 18 23 13 18 13 18 14 11 7 11 12 6 9 20 7 10 2 1 2 2 5 4 5 2 4 3 3 3 5 3 1 6 12 6 6 14 30 26
28 25 22 21 19 18 18 24 17 11 12 28 21 13 32 31 10 6 14 11 3 3 6 4 3 2 1 3 5 6 3 3 2 3 5 1 5 3 8 7 17 29 26 29
27 25 23 21 20 19 19 20 15 11 15 24 35 21 16 18 22 21 8 6 10 4 3 2 2 2 4 3 2 3 4 4 3 3 3 3 19 29 28 32 34 31 39 35
27 25 23 20 18 18 15 18 13 13 11 23 11 10 28 17 18 13 6 7 8 13 14 2 2 2 2 3 4 7 5 4 6 7 10 15 31 34 34 39 38 35 39 39
25 25 21 16 16 15 14 17 10 12 8 5 10 25 18 16 15 8 11 20 21 24 12 2 2 3 6 3 1 4 1 4 9 15 14 27 26 33 39 38 40 38 35 36
24 23 21 17 15 14 13 9 4 6 7 4 13 21 14 17 15 9 7 11 17 12 6 3 3 3 5 3 4 5 6 9 6 5 10 24 19 34 39 39 38 39 41 38
23 21 19 17 14 10 8 3 7 10 12 5 4 10 13 22 10 7 8 13 12 6 5 3 6 5 3 4 3 4 8 20 30 12 28 36 35 38 34 38 36 35 34 32
24 20 18 16 10 9 4 4 10 12 10 4 4 5 8 19 11 10 11 12 9 7 5 6 3 7 6 3 3 7 17 31 39 41 42 29 36 32 35 34 32 30 29 24
19 14 10 8 4 1 2 5 6 9 6 4 3 4 7 14 8 7 11 9 6 9 5 6 3 6 4 4 5 20 26 29 30 26 29 39 39 36 33 30 28 27 26 23
15 10 6 4 2 3 5 6 5 4 4 4 2 2 4 10 5 6 7 5 3 7 3 3 4 3 4 1 6 21 25 19 27 36 39 37 36 34 30 27 26 27 25 20
14 7 3 1 6 5 5 1 3 2 2 3 3 4 3 5 4 4 6 5 1 2 3 4 4 3 4 12 15 13 30 33 37 34 26 30 32 31 29 25 23 23 20 17
12 9 4 12 10 3 2 2 2 2 2 3 4 3 2 4 2 2 3 2 1 3 4 3 2 2 2 14 14 19 30 31 27 30 29 26 29 32 31 29 25 21 19 19
13 9 11 8 3 2 2 2 2 2 2 2 1 4 4 5 3 2 4 2 3 1 1 3 2 3 12 13 15 19 30 29 28 24 25 24 28 31 31 29 27 23 21 18
4 3 3 3 1 2 2 3 2 3 3 2 4 3 3 3 2 3 2 3 2 2 3 1 2 10 14 17 15 26 30 30 26 22 23 23 33 30 29 29 25 20 18 15
3 3 5 2 1 2 2 2 4 8 5 6 9 4 2 4 5 1 2 3 2 3 3 1 3 14 8 19 21 30 26 27 22 30 30 32 30 30 27 22 20 19 18 13
0 1 2 2 4 4 9 11 11 7 5 9 5 2 4 2 2 2 3 5 3 3 2 2 12 4 9 21 24 26 22 23 36 34 33 30 26 23 24 21 17 14 15 14
1 3 3 5 5 5 5 7 9 5 7 11 3 1 2 1 1 2 2 2 2 1 2 11 9 16 18 24 24 27 26 29 35 33 30 27 24 23 22 18 18 17 13 12
2 4 7 10 10 10 9 12 9 6 8 2 2 2 2 2 2 3 3 1 2 0 3 7 7 15 23 27 22 26 36 34 32 30 26 23 22 22 21 19 17 15 15 13
Wind_Direction
344 343 343 342 342 345 346 351 313 352 4 43 314 312 337 320 286 296 292 301 271 270 301 272 238 204 229 136 167 220 220 294 166 223 164 324 297 300 181 178 174 132 145 240
345 341 339 343 348 355 342 319 283 0 356 1 328 306 309 299 299 305 282 253 241 29 293 221 245 194 185 158 152 193 155 213 154 150 4 341 164 259 206 111 100 178 130 217
342 343 346 351 354 353 343 308 311 338 347 1 328 322 309 314 308 302 302 278 29 331 288 242 256 202 166 170 174 220 44 254 191 207 145 150 172 221 176 130 121 152 165 143
342 344 349 352 351 352 350 315 329 334 315 331 316 308 290 341 331 295 296 264 223 295 288 303 243 239 148 183 205 172 226 204 193 139 157 163 4 50 41 131 158 154 177 161
341 340 346 349 351 348 8 325 338 314 298 303 310 311 339 326 311 267 301 311 320 303 274 240 302 351 355 213 197 161 214 196 141 67 146 158 156 50 76 100 104 85 122 107
336 340 348 348 348 348 349 328 319 292 294 307 311 308 320 316 317 293 334 331 311 295 309 320 287 267 276 277 296 163 261 103 87 106 136 126 60 143 85 92 84 136 146 195
344 343 344 343 343 341 331 327 327 295 300 310 306 306 320 323 318 305 320 343 310 313 311 302 267 253 242 232 262 167 32 67 74 134 128 143 112 130 109 100 89 53 110 121
337 339 338 336 331 331 323 324 323 284 284 296 302 324 321 316 313 307 313 321 314 307 296 241 161 258 207 236 174 176 122 92 114 165 124 131 99 157 153 136 167 152 110 124
333 334 335 334 332 326 319 315 316 301 304 252 312 311 309 311 321 319 302 322 324 314 287 291 185 171 147 149 109 48 93 36 212 179 96 87 260 172 136 112 12 47 143 149
331 330 333 335 334 328 318 307 318 302 279 285 304 303 300 312 309 280 294 326 327 340 303 313 47 94 134 151 142 181 113 32 62 61 86 26 114 348 161 82 205 133 142 152
335 331 331 333 332 329 319 309 322 292 275 290 281 290 302 295 288 291 312 320 14 303 360 5 14 21 320 134 131 129 108 99 53 70 81 130 353 30 135 145 106 121 118 121
336 333 327 327 329 326 322 313 334 308 275 276 303 304 325 322 300 273 301 304 308 284 317 353 321 344 359 27 79 305 66 159 141 78 81 7 82 103 109 113 112 119 123 125
332 331 327 324 327 330 329 314 338 321 291 309 311 320 326 320 327 321 309 296 300 290 293 275 237 4 23 39 21 81 53 84 83 75 54 83 91 95 106 117 113 114 119 123
334 328 328 325 326 331 323 316 320 295 279 278 289 319 324 346 337 315 293 303 315 311 306 258 1 38 8 41 116 76 338 87 99 94 95 81 79 100 113 112 121 124 126 131
332 329 328 319 318 317 323 305 342 338 290 287 299 324 335 338 331 323 324 328 329 330 357 8 17 359 9 360 39 23 353 137 127 128 108 110 108 109 121 118 120 130 131 129
336 327 323 320 317 313 338 282 252 332 341 313 306 307 320 344 348 3 20 6 358 337 2 341 3 342 81 60 15 287 56 118 118 125 116 112 113 120 122 122 126 129 128 128
332 324 318 318 295 294 271 259 302 333 320 278 280 294 325 342 1 14 0 10 0 358 11 16 344 349 60 62 45 3 96 117 121 123 121 103 122 116 124 123 123 122 119 119
334 339 337 349 4 21 310 309 315 317 307 280 293 298 314 354 336 338 354 340 1 17 12 9 8 4 41 44 347 90 107 112 117 121 131 129 127 127 124 126 126 119 117 118
337 342 342 341 356 337 306 302 286 299 274 306 299 293 311 336 325 314 330 338 14 352 34 351 42 340 49 314 87 111 123 126 120 124 127 133 130 127 129 130 128 125 125 126
350 6 31 350 329 329 303 255 300 303 227 249 251 277 281 321 317 320 351 351 346 33 288 1 57 355 23 82 122 130 137 136 133 124 128 130 130 136 138 135 137 133 133 129
9 2 341 315 317 310 262 276 218 212 259 239 259 300 291 320 358 295 336 257 306 46 287 83 8 348 336 112 126 145 145 148 143 142 149 148 150 147 145 145 140 137 134 132
335 318 314 316 321 295 309 259 237 213 234 266 274 293 303 305 300 359 330 346 12 343 241 64 68 323 139 126 131 145 152 152 146 149 154 150 155 152 151 149 145 141 137 138
355 339 297 276 286 5 320 350 336 332 325 301 301 310 292 305 280 308 338 9 278 314 45 87 23 332 155 138 144 152 152 144 137 147 150 153 152 154 149 145 144 142 137 137
16 343 309 225 20 23 281 314 308 304 331 339 330 323 357 4 2 356 357 287 0 52 27 9 321 338 122 148 140 147 145 146 141 143 144 141 139 137 140 141 144 142 138 136
13 314 281 339 324 298 293 310 312 330 329 342 346 12 12 322 16 345 358 342 50 32 314 263 286 281 129 140 149 143 133 130 140 144 139 135 135 133 134 138 141 143 142 135
209 231 276 290 312 322 312 325 322 335 326 321 294 359 354 352 285 303 336 353 39 292 311 338 68 139 153 136 142 143 131 141 142 141 139 137 138 138 139 141 144 145 144 138
223 251 256 271 279 272 271 311 313 335 325 327 346 357 246 311 14 5 2 69 174 45 331 347 94 135 143 133 139 143 150 147 143 140 140 139 142 144 145 141 144 145 142 141